[[{"header":{"parameterUnit":"m.s-1","parameterCategory":1,"la1":30.2991,"la2":30.254,"lo1":-89.0895,"lo2":-89.0444,"dy":0.0017,"dx":0.0017,"nx":28,"ny":28,"refTime":"2025-09-19T03:00:00:Z","depth":0,"parameterNumber":2,"parameterNumberName":"U-component_of_WINDS"},"data":[0,0,0,0,0,0,0,0,0,0,0,0,0,0,0,0,0,0,0,0,0,0,0,0,0,0,0,0,0,0,0,0,0,0,0,0,0,0,0,0,0,0,0,0,0,0,0,0,0,0,0,0,0,0,0,0,0,0,0.0315,0.0316,0,0.0339,0.0339,0.034,0.0376,0.0377,0.0377,0.0378,0.0401,0.0401,0.0401,0,0,0,0,0,0,0,0,0,0,0,0,0,0.03,0.03,0.0315,0.0316,0.0316,0.0339,0.0339,0.034,0.0376,0.0377,0.0378,0.0378,0.0401,0.0401,0.0401,0,0,0,0,0,0,0,0,0,0,0,0,0,0.0313,0.03,0.0315,0.0337,0.0339,0.0339,0.0339,0.034,0.0376,0.0377,0.0378,0.0379,0.0401,0.0401,0.0401,0.0382,0,0,0.0401,0.0401,0,0,0,0,0,0,0,0,0.0313,0.0314,0.0333,0.0335,0.0338,0.0356,0.0342,0.0354,0.0376,0.0362,0.0378,0.0379,0.0385,0.0387,0.0389,0.0383,0.0384,0.0401,0.0401,0.0401,0.0401,0,0,0,0,0,0,0,0.0312,0.0313,0.0325,0.0334,0.0336,0.0345,0.0348,0.0345,0.0368,0.0363,0.0366,0.0368,0.0387,0.0389,0.039,0.0384,0.0401,0.0401,0.0401,0.0401,0.0361,0.036,0,0,0,0,0,0,0.0308,0.0312,0.0324,0.0325,0.0327,0.0344,0.0348,0.0349,0.0368,0.0372,0.0367,0.037,0.0388,0.039,0.0391,0.0368,0.0401,0.0401,0.0401,0.0362,0.0361,0.036,0,0,0,0,0,0,0.0307,0.0308,0.0323,0.032,0.0322,0.0344,0.0345,0.0349,0.0351,0.0371,0.0375,0.0365,0.0389,0.0391,0.0383,0.0369,0.0401,0.0401,0.0364,0.0362,0.0361,0.0322,0,0,0,0,0,0,0.0307,0.0308,0.0301,0.0319,0.0322,0.0316,0.0344,0.0349,0.0351,0.0355,0.037,0.0374,0.039,0.0383,0.0383,0.037,0.0401,0.0365,0.0363,0.0361,0.0325,0.032,0.0315,0,0,0,0,0,0.0306,0.029,0.0301,0.0302,0.0314,0.0315,0.0316,0.0336,0.035,0.0343,0.0355,0.0373,0.0371,0.0382,0.0383,0.0369,0.0366,0.0364,0.0361,0.0327,0.0321,0.0315,0,0,0,0,0,0,0.0269,0.0292,0.0305,0.0294,0.0302,0.0321,0.0313,0.0328,0.0332,0.0335,0.0359,0.0362,0.0351,0.036,0.0372,0.035,0.0371,0.0369,0.0345,0.0339,0.0334,0.0332,0.0401,0,0,0,0,0,0.026,0.0259,0.0279,0.0267,0.0271,0.0291,0.0292,0.0306,0.0315,0.0319,0.0331,0.0339,0.034,0.034,0.0342,0.0327,0.033,0.0317,0.0312,0.0308,0.0305,0.0296,0.0291,0.0352,0.0352,0.0352,0,0,0.024,0.0253,0.0251,0.026,0.0268,0.0266,0.0294,0.0291,0.0289,0.0318,0.0312,0.0321,0.0332,0.032,0.0315,0.0326,0.0289,0.0305,0.0302,0.0301,0.0293,0.0287,0.0282,0.0351,0.0351,0.0351,0,0,0.0204,0.0214,0.0204,0.0212,0.0223,0.0237,0.0234,0.0251,0.0258,0.0252,0.0274,0.0272,0.0274,0.028,0.0283,0.0248,0.0264,0.0248,0.0222,0.0212,0.0208,0.0203,0.0189,0.0184,0.0245,0.0245,0.0245,0,0.0178,0.0176,0.0197,0.0192,0.0195,0.0222,0.0212,0.0219,0.023,0.0231,0.0244,0.0245,0.0254,0.0244,0.0235,0.0237,0.0234,0.0246,0.0207,0.0203,0.0199,0.0186,0.0181,0.0243,0.0243,0.0244,0.0244,0,0.0143,0.0141,0.0132,0.0142,0.0145,0.0137,0.0157,0.0156,0.017,0.0182,0.0175,0.0187,0.0191,0.019,0.0203,0.018,0.0187,0.0203,0.0224,0.0191,0.0179,0.0174,0.024,0.0241,0.0241,0.0242,0,0,0.0083,0.0105,0.0101,0.0106,0.0121,0.0119,0.0113,0.0117,0.0116,0.0123,0.0117,0.0118,0.0132,0.0136,0.015,0.0143,0.0112,0.0159,0.016,0.0149,0.0086,0.0073,0.0067,0.0123,0.0122,0.0122,0.0085,0,0.0048,0.0038,0.0057,0.0043,0.0041,0.0066,0.006,0.0068,0.0079,0.0078,0.009,0.009,0.011,0.0112,0.0105,0.0117,0.0099,0.012,0.0117,0.0117,0.0112,0.0061,0.0047,0.0011,0.008,0.0079,0.0079,0,0.0006,0.001,-0.0004,0.001,0.001,0.0005,0.001,0.0009,0.0019,0.0027,0.0031,0.0048,0.0041,0.0063,0.0054,0.0068,0.0068,0.0073,0.0072,0.0072,0.0095,0.0057,0.0001,-0.0005,0.0072,0.0073,0.0073,0,-0.0039,-0.0036,-0.0044,-0.0041,-0.0023,-0.0028,-0.0021,-0.0011,-0.001,-0.0005,-0.0005,-0.0001,0.0,0.0002,0.0019,0.0034,0.0008,0.0031,0.0014,0.0013,0.0006,0.0006,-0.0053,0.0008,0.0008,0.0008,0.0009,0,-0.0081,-0.0091,-0.0064,-0.007,-0.0081,-0.0059,-0.0071,-0.0061,-0.0053,-0.0056,-0.0034,-0.0038,-0.0014,-0.0016,-0.0003,-0.0013,-0.0012,-0.0007,-0.0003,-0.0009,-0.001,-0.001,-0.0008,0.0007,0.0007,0.0008,0.0008,0,-0.0132,-0.0115,-0.0123,-0.0105,-0.0101,-0.0111,-0.0096,-0.0101,-0.0089,-0.0094,-0.0094,-0.0075,-0.0076,-0.0058,-0.0056,-0.0047,-0.0064,-0.0055,-0.0067,-0.0065,-0.0084,-0.0084,-0.0146,-0.0154,-0.0087,-0.0087,-0.0088,0,-0.0161,-0.0169,-0.0152,-0.0153,-0.0147,-0.0149,-0.0147,-0.0126,-0.0126,-0.0116,-0.0123,-0.0122,-0.012,-0.0124,-0.011,-0.0108,-0.0101,-0.0123,-0.01,-0.0107,-0.0103,-0.0103,-0.0105,-0.0128,-0.0129,-0.0129,-0.013,0,-0.0215,-0.0205,-0.0204,-0.0201,-0.02,-0.0196,-0.019,-0.0192,-0.0169,-0.017,-0.0171,-0.017,-0.0168,-0.0168,-0.0164,-0.0157,-0.0141,-0.0137,-0.0141,-0.0149,-0.0156,-0.0154,-0.0082,-0.0136,-0.0135,-0.0135,-0.0135,-0.0134,-0.0257,-0.0263,-0.0252,-0.0252,-0.0246,-0.0241,-0.0245,-0.0234,-0.0234,-0.023,-0.0218,-0.0221,-0.0212,-0.0205,-0.02,-0.0203,-0.0192,-0.0198,-0.0199,-0.0202,-0.0206,-0.0154,-0.0202,-0.0201,-0.0201,-0.0201,-0.0201,0,-0.031,-0.0302,-0.0302,-0.0296,-0.0296,-0.0279,-0.0272,-0.0274,-0.0277,-0.027,-0.0269,-0.027,-0.027,-0.0257,-0.0255,-0.026,-0.0253,-0.0261,-0.0261,-0.026,-0.0215,-0.0212,-0.0267,-0.0267,-0.0267,-0.0267,-0.0267,-0.0267,-0.0339,-0.0348,-0.0338,-0.0344,-0.0336,-0.0339,-0.0337,-0.0333,-0.0328,-0.033,-0.033,-0.0321,-0.0312,-0.0309,-0.0309,-0.0305,-0.0306,-0.0317,-0.0311,-0.0269,-0.0263,-0.0257,-0.0254,-0.0317,-0.0318,-0.0356,-0.0357,-0.0357]},{"header":{"parameterUnit":"m.s-1","parameterCategory":1,"la1":30.2991,"la2":30.254,"lo1":-89.0895,"lo2":-89.0444,"dy":0.0017,"dx":0.0017,"nx":28,"ny":28,"refTime":"2025-09-19T03:00:00:Z","depth":0,"parameterNumber":3,"parameterNumberName":"V-component_of_WINDS"},"data":[0,0,0,0,0,0,0,0,0,0,0,0,0,0,0,0,0,0,0,0,0,0,0,0,0,0,0,0,0,0,0,0,0,0,0,0,0,0,0,0,0,0,0,0,0,0,0,0,0,0,0,0,0,0,0,0,0,0,2.7041,2.7041,0,2.7051,2.7051,2.7051,2.7049,2.7048,2.7048,2.7048,2.7057,2.7057,2.7058,0,0,0,0,0,0,0,0,0,0,0,0,0,2.7019,2.7019,2.7041,2.7041,2.7041,2.7051,2.7051,2.7051,2.7049,2.7048,2.7048,2.7048,2.7057,2.7057,2.7058,0,0,0,0,0,0,0,0,0,0,0,0,0,2.7029,2.702,2.7041,2.7041,2.7041,2.7051,2.7051,2.7051,2.7049,2.7048,2.7048,2.7048,2.7056,2.7057,2.7058,2.7067,0,0,2.7059,2.706,0,0,0,0,0,0,0,0,2.7028,2.7029,2.7041,2.7041,2.7041,2.7048,2.7046,2.7056,2.7049,2.7046,2.7048,2.7048,2.7054,2.7055,2.7057,2.7067,2.7068,2.706,2.706,2.706,2.706,0,0,0,0,0,0,0,2.7027,2.7029,2.7045,2.7041,2.7041,2.704,2.7041,2.7048,2.7051,2.7046,2.7046,2.7047,2.7054,2.7057,2.7057,2.7068,2.706,2.706,2.706,2.7061,2.7086,2.7087,0,0,0,0,0,0,2.7027,2.7028,2.7044,2.7045,2.7034,2.7041,2.7042,2.7046,2.7051,2.7052,2.7047,2.7047,2.7056,2.7057,2.7058,2.7069,2.706,2.7061,2.7061,2.7086,2.7086,2.7087,0,0,0,0,0,0,2.7026,2.7028,2.7044,2.7037,2.7039,2.7042,2.7046,2.7047,2.7049,2.7052,2.7053,2.705,2.7056,2.7057,2.7065,2.7069,2.7061,2.7062,2.7086,2.7086,2.7087,2.7091,0,0,0,0,0,0,2.7026,2.7028,2.7032,2.7037,2.7039,2.7051,2.7047,2.7047,2.705,2.705,2.7054,2.7055,2.7055,2.7064,2.7065,2.707,2.7062,2.7085,2.7086,2.7086,2.7091,2.7092,2.7093,0,0,0,0,0,2.7025,2.7033,2.7032,2.7034,2.7044,2.7052,2.7053,2.7054,2.7051,2.7054,2.7056,2.7055,2.7069,2.7065,2.7066,2.7071,2.7085,2.7086,2.7086,2.709,2.7092,2.7093,0,0,0,0,0,0,2.7027,2.7033,2.7033,2.7042,2.7047,2.7051,2.7056,2.7055,2.706,2.7059,2.706,2.7061,2.7069,2.7071,2.7066,2.708,2.7076,2.7077,2.7079,2.708,2.7081,2.708,2.7063,0,0,0,0,0,2.7029,2.7035,2.704,2.7048,2.705,2.7053,2.7056,2.7056,2.7061,2.7062,2.7065,2.7069,2.7074,2.7077,2.7082,2.7091,2.7092,2.7095,2.7096,2.7097,2.7098,2.7103,2.7104,2.7089,2.7089,2.7089,0,0,2.7033,2.7037,2.704,2.7048,2.7052,2.7058,2.7054,2.706,2.7065,2.7063,2.7071,2.7073,2.7077,2.7086,2.709,2.7087,2.7102,2.7098,2.7099,2.7099,2.7103,2.7105,2.7106,2.7089,2.7089,2.7089,0,0,2.7042,2.7046,2.7053,2.7056,2.7062,2.7063,2.7065,2.707,2.7071,2.7079,2.7078,2.7083,2.7092,2.7095,2.7098,2.7109,2.7107,2.7111,2.7116,2.712,2.7121,2.7123,2.7126,2.7127,2.7111,2.7111,2.7111,0,2.7045,2.7055,2.7056,2.7063,2.7066,2.7066,2.7073,2.7076,2.7082,2.7085,2.7083,2.7094,2.7097,2.7106,2.7109,2.7111,2.7113,2.711,2.7121,2.7122,2.7123,2.7127,2.7128,2.7112,2.7112,2.7112,2.7112,0,2.7058,2.7065,2.707,2.7077,2.7081,2.7087,2.709,2.7094,2.7094,2.7096,2.7104,2.7107,2.7113,2.7115,2.7115,2.7125,2.7123,2.7121,2.7117,2.7125,2.7128,2.7129,2.7112,2.7112,2.7112,2.7112,0,0,2.7069,2.7077,2.7079,2.7082,2.7088,2.7093,2.7099,2.7105,2.7108,2.7113,2.7118,2.7126,2.7125,2.7128,2.7128,2.7132,2.714,2.713,2.713,2.7131,2.715,2.7151,2.7153,2.714,2.714,2.714,2.715,0,2.7078,2.709,2.7092,2.7103,2.7108,2.7108,2.7114,2.7118,2.712,2.7125,2.7127,2.7133,2.713,2.7132,2.7136,2.7139,2.7144,2.7138,2.7144,2.7144,2.7142,2.7154,2.7156,2.7164,2.7151,2.7151,2.7151,0,2.709,2.7096,2.7107,2.7113,2.7115,2.712,2.7126,2.7131,2.7136,2.7137,2.7141,2.7141,2.7147,2.7143,2.7152,2.7148,2.7151,2.7152,2.7152,2.7152,2.7148,2.7154,2.7167,2.7168,2.7153,2.7153,2.7153,0,2.7096,2.7107,2.7115,2.7117,2.7124,2.7128,2.713,2.7135,2.7138,2.7143,2.7146,2.7151,2.7154,2.7158,2.716,2.7157,2.7168,2.7164,2.7169,2.7169,2.7171,2.717,2.7183,2.7173,2.7173,2.7173,2.7173,0,2.7106,2.7113,2.7117,2.7122,2.713,2.7132,2.7139,2.7142,2.7146,2.7151,2.7151,2.7156,2.7158,2.7163,2.7164,2.7171,2.7172,2.7173,2.7173,2.7173,2.7172,2.7174,2.7173,2.7174,2.7174,2.7174,2.7174,0,2.7114,2.7117,2.7126,2.7132,2.7133,2.7138,2.7143,2.7148,2.715,2.7156,2.7158,2.7162,2.7167,2.7169,2.7176,2.7177,2.7185,2.7185,2.7183,2.7183,2.7187,2.7187,2.7201,2.7203,2.7193,2.7193,2.7193,0,2.7119,2.7125,2.7131,2.7135,2.7138,2.7144,2.7148,2.715,2.7154,2.716,2.7164,2.717,2.7175,2.7184,2.7187,2.7192,2.7192,2.7196,2.7192,2.7192,2.7191,2.7191,2.7191,2.7197,2.7197,2.7197,2.7197,0,2.7129,2.7131,2.7136,2.7143,2.7148,2.7153,2.7157,2.716,2.7163,2.7168,2.7174,2.7178,2.7185,2.7191,2.7196,2.7199,2.7198,2.7199,2.72,2.7199,2.7198,2.7198,2.7185,2.7198,2.7198,2.7198,2.7198,2.7198,2.7136,2.714,2.7146,2.7152,2.7156,2.7161,2.7165,2.7169,2.7174,2.7181,2.7182,2.7188,2.7193,2.72,2.7203,2.7208,2.7207,2.7208,2.7209,2.7209,2.7209,2.7198,2.7209,2.7209,2.7209,2.7209,2.7209,0,2.7145,2.7149,2.7155,2.7162,2.7167,2.7167,2.7172,2.7176,2.7182,2.7187,2.7192,2.7199,2.7204,2.7208,2.7214,2.7217,2.7217,2.7218,2.7218,2.7218,2.721,2.7208,2.7218,2.7218,2.7218,2.7218,2.7218,2.7218,2.715,2.7158,2.716,2.717,2.7174,2.7181,2.7184,2.7188,2.7192,2.72,2.7205,2.7207,2.7211,2.7217,2.7222,2.7223,2.7225,2.7226,2.7227,2.722,2.7219,2.7218,2.7216,2.7227,2.7227,2.7234,2.7234,2.7234]}]]